• In Czech Republic
  • List of Countries
  • For 7 days
  • Water Temperature
  • Satellite Maps
  • Weather Map
  • Weather Widgets
  • user-avatar
    Login

    Hourly Weather Altea

    Today, 20 October, Saturday

    Time Temperature Precipitation Wind Pressure Humidity
    00:00 +19°C° 0 mm 3 mps 761 mmHg 79%
    01:00 +19°C° 0.4 mm 3 mps 761 mmHg 81%
    02:00 +18°C° 0.4 mm 3 mps 761 mmHg 83%
    03:00 +18°C° 0.4 mm 4 mps 761 mmHg 84%
    04:00 +18°C° 0.3 mm 4 mps 761 mmHg 86%
    05:00 +17°C° 0.3 mm 5 mps 761 mmHg 88%
    06:00 +19°C° 0.3 mm 5 mps 762 mmHg 90%
    07:00 +19°C° 0.1 mm 5 mps 762 mmHg 90%
    08:00 +19°C° 0.1 mm 6 mps 762 mmHg 89%
    09:00 +19°C° 0.1 mm 6 mps 762 mmHg 89%
    10:00 +20°C° 0.1 mm 6 mps 763 mmHg 87%
    11:00 +20°C° 0.1 mm 7 mps 763 mmHg 86%
    12:00 +21°C° 0.1 mm 7 mps 763 mmHg 85%
    13:00 +22°C° 0 mm 7 mps 763 mmHg 80%
    14:00 +23°C° 0 mm 7 mps 762 mmHg 76%
    15:00 +24°C° 0 mm 8 mps 762 mmHg 71%
    16:00 +23°C° 0 mm 8 mps 762 mmHg 77%
    17:00 +22°C° 0 mm 7 mps 762 mmHg 82%
    18:00 +21°C° 0 mm 7 mps 762 mmHg 88%
    19:00 +21°C° 0 mm 8 mps 762 mmHg 90%
    20:00 +21°C° 0 mm 8 mps 763 mmHg 91%
    21:00 +21°C° 0 mm 8 mps 763 mmHg 93%
    22:00 +21°C° 0 mm 8 mps 763 mmHg 93%
    23:00 +21°C° 0 mm 8 mps 763 mmHg 93%

    Tomorrow, 21 October, Sunday

    Time Temperature Precipitation Wind Pressure Humidity
    00:00 +21°C° 0 mm 8 mps 763 mmHg 93%
    01:00 +21°C° 0.1 mm 8 mps 762 mmHg 93%
    02:00 +21°C° 0.1 mm 8 mps 762 mmHg 93%
    03:00 +21°C° 0.1 mm 8 mps 762 mmHg 93%
    04:00 +21°C° 0 mm 8 mps 762 mmHg 94%
    05:00 +21°C° 0 mm 8 mps 762 mmHg 94%
    06:00 +21°C° 0 mm 7 mps 762 mmHg 94%
    07:00 +21°C° 0.1 mm 7 mps 763 mmHg 90%
    08:00 +22°C° 0.1 mm 7 mps 763 mmHg 85%
    09:00 +23°C° 0.1 mm 7 mps 763 mmHg 80%
    10:00 +24°C° 0 mm 7 mps 763 mmHg 77%
    11:00 +24°C° 0 mm 7 mps 763 mmHg 74%
    12:00 +26°C° 0 mm 6 mps 763 mmHg 71%
    13:00 +26°C° 0 mm 6 mps 763 mmHg 71%
    14:00 +26°C° 0 mm 6 mps 762 mmHg 71%
    15:00 +26°C° 0 mm 6 mps 762 mmHg 70%
    16:00 +25°C° 0 mm 5 mps 762 mmHg 75%
    17:00 +23°C° 0 mm 5 mps 762 mmHg 80%
    18:00 +22°C° 0 mm 4 mps 762 mmHg 85%
    19:00 +21°C° 0 mm 4 mps 762 mmHg 87%
    20:00 +21°C° 0 mm 4 mps 762 mmHg 89%
    21:00 +20°C° 0 mm 4 mps 763 mmHg 91%
    22:00 +20°C° 0 mm 4 mps 763 mmHg 91%
    23:00 +20°C° 0 mm 3 mps 762 mmHg 90%

    Day after tomorrow, 22 October, Monday

    Time Temperature Precipitation Wind Pressure Humidity
    00:00 +19°C° 0 mm 3 mps 762 mmHg 90%
    01:00 +19°C° 0 mm 3 mps 762 mmHg 89%
    02:00 +19°C° 0 mm 3 mps 762 mmHg 89%
    03:00 +19°C° 0 mm 2 mps 762 mmHg 89%
    04:00 +19°C° 0 mm 2 mps 762 mmHg 88%
    05:00 +18°C° 0 mm 2 mps 762 mmHg 88%
    06:00 +19°C° 0 mm 1 mps 762 mmHg 87%
    07:00 +21°C° 0 mm 1 mps 762 mmHg 79%
    08:00 +23°C° 0 mm 1 mps 763 mmHg 71%
    09:00 +25°C° 0 mm 1 mps 763 mmHg 62%
    10:00 +26°C° 0 mm 1 mps 763 mmHg 57%
    11:00 +27°C° 0 mm 2 mps 763 mmHg 51%
    12:00 +28°C° 0 mm 2 mps 763 mmHg 45%
    13:00 +28°C° 0 mm 3 mps 763 mmHg 47%
    14:00 +28°C° 0 mm 4 mps 763 mmHg 49%
    15:00 +28°C° 0 mm 5 mps 763 mmHg 51%
    16:00 +26°C° 0 mm 5 mps 763 mmHg 61%
    17:00 +23°C° 0 mm 5 mps 764 mmHg 70%
    18:00 +22°C° 0 mm 5 mps 764 mmHg 80%
    19:00 +21°C° 0 mm 5 mps 765 mmHg 82%
    20:00 +21°C° 0 mm 5 mps 765 mmHg 84%
    21:00 +21°C° 0 mm 5 mps 766 mmHg 86%
    22:00 +20°C° 0.1 mm 5 mps 766 mmHg 87%
    23:00 +20°C° 0.1 mm 5 mps 766 mmHg 88%

    23 October, Tuesday

    Time Temperature Precipitation Wind Pressure Humidity
    00:00 +19°C° 0.1 mm 5 mps 766 mmHg 89%
    01:00 +19°C° 0.1 mm 5 mps 766 mmHg 90%
    02:00 +19°C° 0.1 mm 5 mps 766 mmHg 90%
    03:00 +19°C° 0.1 mm 5 mps 766 mmHg 90%
    04:00 +19°C° 0 mm 5 mps 766 mmHg 91%
    05:00 +18°C° 0 mm 4 mps 766 mmHg 92%
    06:00 +18°C° 0 mm 4 mps 766 mmHg 94%
    07:00 +19°C° 0 mm 4 mps 766 mmHg 88%
    08:00 +20°C° 0 mm 4 mps 766 mmHg 83%
    09:00 +20°C° 0 mm 3 mps 767 mmHg 78%
    10:00 +21°C° 0 mm 4 mps 767 mmHg 71%
    11:00 +23°C° 0 mm 4 mps 767 mmHg 64%
    12:00 +25°C° 0 mm 4 mps 767 mmHg 58%
    13:00 +23°C° 0 mm 4 mps 766 mmHg 58%
    14:00 +24°C° 0 mm 3 mps 766 mmHg 59%
    15:00 +24°C° 0 mm 3 mps 766 mmHg 59%
    16:00 +22°C° 0 mm 3 mps 766 mmHg 64%
    17:00 +22°C° 0 mm 3 mps 766 mmHg 68%
    18:00 +21°C° 0 mm 3 mps 766 mmHg 72%
    19:00 +20°C° 0 mm 3 mps 767 mmHg 76%
    20:00 +20°C° 0 mm 3 mps 767 mmHg 81%
    21:00 +19°C° 0 mm 3 mps 767 mmHg 85%
    22:00 +18°C° 0 mm 3 mps 767 mmHg 87%
    23:00 +18°C° 0 mm 3 mps 767 mmHg 89%

    24 October, Wednesday

    Time Temperature Precipitation Wind Pressure Humidity
    00:00 +17°C° 0 mm 3 mps 767 mmHg 91%
    01:00 +17°C° 0 mm 3 mps 767 mmHg 92%
    02:00 +17°C° 0 mm 3 mps 766 mmHg 92%
    03:00 +16°C° 0 mm 3 mps 766 mmHg 93%
    04:00 +16°C° 0 mm 3 mps 766 mmHg 93%
    05:00 +16°C° 0 mm 3 mps 766 mmHg 92%
    06:00 +16°C° 0 mm 3 mps 766 mmHg 92%
    07:00 +17°C° 0 mm 3 mps 766 mmHg 84%
    08:00 +19°C° 0 mm 2 mps 766 mmHg 76%
    09:00 +20°C° 0 mm 2 mps 767 mmHg 68%
    10:00 +21°C° 0 mm 2 mps 766 mmHg 59%
    11:00 +24°C° 0 mm 2 mps 766 mmHg 51%
    12:00 +25°C° 0 mm 1 mps 766 mmHg 42%
    13:00 +25°C° 0 mm 2 mps 765 mmHg 39%
    14:00 +26°C° 0 mm 2 mps 765 mmHg 37%
    15:00 +27°C° 0 mm 2 mps 764 mmHg 34%
    16:00 +25°C° 0 mm 3 mps 764 mmHg 39%
    17:00 +24°C° 0 mm 3 mps 764 mmHg 44%
    18:00 +21°C° 0 mm 3 mps 764 mmHg 49%
    19:00 +21°C° 0 mm 3 mps 765 mmHg 53%
    20:00 +20°C° 0 mm 4 mps 765 mmHg 57%
    21:00 +19°C° 0 mm 4 mps 765 mmHg 60%
    22:00 +19°C° 0 mm 4 mps 765 mmHg 62%
    23:00 +19°C° 0 mm 3 mps 765 mmHg 64%

    25 October, Thursday

    Time Temperature Precipitation Wind Pressure Humidity
    00:00 +18°C° 0 mm 3 mps 765 mmHg 65%
    01:00 +18°C° 0 mm 3 mps 765 mmHg 65%
    02:00 +18°C° 0 mm 3 mps 764 mmHg 65%
    03:00 +17°C° 0 mm 3 mps 764 mmHg 64%
    04:00 +17°C° 0 mm 3 mps 764 mmHg 64%
    05:00 +17°C° 0 mm 3 mps 764 mmHg 63%
    06:00 +17°C° 0 mm 3 mps 764 mmHg 62%
    07:00 +19°C° 0 mm 3 mps 764 mmHg 54%
    08:00 +21°C° 0 mm 3 mps 764 mmHg 47%
    09:00 +24°C° 0 mm 2 mps 765 mmHg 39%
    10:00 +25°C° 0 mm 3 mps 764 mmHg 36%
    11:00 +26°C° 0 mm 3 mps 764 mmHg 32%
    12:00 +27°C° 0 mm 4 mps 764 mmHg 28%
    13:00 +28°C° 0 mm 4 mps 763 mmHg 27%
    14:00 +28°C° 0 mm 4 mps 763 mmHg 27%
    15:00 +28°C° 0 mm 5 mps 763 mmHg 26%
    16:00 +26°C° 0 mm 5 mps 763 mmHg 33%
    17:00 +25°C° 0 mm 5 mps 763 mmHg 40%
    18:00 +22°C° 0 mm 5 mps 763 mmHg 47%
    19:00 +21°C° 0 mm 5 mps 763 mmHg 52%
    20:00 +20°C° 0 mm 4 mps 763 mmHg 57%
    21:00 +20°C° 0 mm 4 mps 763 mmHg 62%
    22:00 +19°C° 0 mm 4 mps 763 mmHg 63%
    23:00 +19°C° 0 mm 4 mps 763 mmHg 63%
    Show more